When you browse on this site, cookies collect data to enhance your experience and personalize the content and advertising you see.
Visit our Privacy Policy to learn more. By continuing to use the site, you agree to this use of cookies and data.
  • In Schweiz
  • Länderverzeichnis
  • Für 7 Tage
  • Wassertemperatur
  • Satellitenkarten
  • Wetterkarte
  • Widgets
  • user-avatar
    Anmelden

    Stündliche Wetter Saidpur

    Heute, 24 Juli, Mittwoch

    Zeit Temperatur Niederschläge Wind Luftdruck Luftfeuchtigkeit
    00:00 +29°C° 0 mm 3 m/S 748 mmHg 88%
    01:00 +28°C° 1 mm 3 m/S 748 mmHg 89%
    02:00 +28°C° 1 mm 3 m/S 748 mmHg 89%
    03:00 +28°C° 1 mm 3 m/S 747 mmHg 90%
    04:00 +28°C° 1.8 mm 3 m/S 747 mmHg 91%
    05:00 +28°C° 1.8 mm 4 m/S 747 mmHg 92%
    06:00 +27°C° 1.8 mm 4 m/S 747 mmHg 93%
    07:00 +28°C° 0.9 mm 4 m/S 748 mmHg 92%
    08:00 +28°C° 0.9 mm 4 m/S 748 mmHg 91%
    09:00 +28°C° 0.9 mm 4 m/S 749 mmHg 90%
    10:00 +29°C° 0.1 mm 3 m/S 748 mmHg 88%
    11:00 +29°C° 0.1 mm 3 m/S 748 mmHg 86%
    12:00 +29°C° 0.1 mm 3 m/S 748 mmHg 84%
    13:00 +30°C° 0.3 mm 3 m/S 748 mmHg 83%
    14:00 +30°C° 0.3 mm 3 m/S 747 mmHg 82%
    15:00 +30°C° 0.3 mm 4 m/S 747 mmHg 81%
    16:00 +30°C° 1 mm 3 m/S 747 mmHg 83%
    17:00 +30°C° 1 mm 3 m/S 747 mmHg 84%
    18:00 +30°C° 1 mm 2 m/S 747 mmHg 86%
    19:00 +29°C° 0.8 mm 3 m/S 747 mmHg 87%
    20:00 +29°C° 0.8 mm 3 m/S 748 mmHg 88%
    21:00 +29°C° 0.8 mm 4 m/S 749 mmHg 90%
    22:00 +28°C° 1.9 mm 3 m/S 749 mmHg 91%
    23:00 +28°C° 1.9 mm 3 m/S 749 mmHg 91%

    Morgen, 25 Juli, Donnerstag

    Zeit Temperatur Niederschläge Wind Luftdruck Luftfeuchtigkeit
    00:00 +28°C° 1.9 mm 3 m/S 749 mmHg 92%
    01:00 +28°C° 2.9 mm 3 m/S 749 mmHg 93%
    02:00 +28°C° 2.9 mm 2 m/S 748 mmHg 95%
    03:00 +27°C° 2.9 mm 2 m/S 748 mmHg 96%
    04:00 +27°C° 0.2 mm 2 m/S 748 mmHg 95%
    05:00 +27°C° 0.2 mm 2 m/S 748 mmHg 95%
    06:00 +28°C° 0.2 mm 2 m/S 749 mmHg 94%
    07:00 +28°C° 0.3 mm 2 m/S 749 mmHg 93%
    08:00 +28°C° 0.3 mm 3 m/S 749 mmHg 92%
    09:00 +28°C° 0.3 mm 3 m/S 750 mmHg 91%
    10:00 +29°C° 0.6 mm 3 m/S 750 mmHg 88%
    11:00 +29°C° 0.6 mm 3 m/S 750 mmHg 85%
    12:00 +30°C° 0.6 mm 3 m/S 750 mmHg 83%
    13:00 +30°C° 0.6 mm 4 m/S 749 mmHg 81%
    14:00 +32°C° 0.6 mm 4 m/S 748 mmHg 78%
    15:00 +33°C° 0.6 mm 5 m/S 748 mmHg 76%
    16:00 +32°C° 0.1 mm 4 m/S 748 mmHg 77%
    17:00 +32°C° 0.1 mm 4 m/S 747 mmHg 78%
    18:00 +31°C° 0.1 mm 3 m/S 747 mmHg 79%
    19:00 +30°C° 0.3 mm 3 m/S 748 mmHg 81%
    20:00 +30°C° 0.3 mm 4 m/S 748 mmHg 84%
    21:00 +29°C° 0.3 mm 4 m/S 749 mmHg 86%
    22:00 +29°C° 1.1 mm 4 m/S 749 mmHg 86%
    23:00 +29°C° 1.1 mm 4 m/S 749 mmHg 87%

    übermorgen, 26 Juli, Freitag

    Zeit Temperatur Niederschläge Wind Luftdruck Luftfeuchtigkeit
    00:00 +29°C° 1.1 mm 4 m/S 749 mmHg 87%
    01:00 +29°C° 0.4 mm 4 m/S 748 mmHg 88%
    02:00 +29°C° 0.4 mm 4 m/S 748 mmHg 89%
    03:00 +28°C° 0.4 mm 3 m/S 748 mmHg 90%
    04:00 +28°C° 0.3 mm 4 m/S 748 mmHg 90%
    05:00 +28°C° 0.3 mm 4 m/S 748 mmHg 90%
    06:00 +28°C° 0.3 mm 4 m/S 748 mmHg 90%
    07:00 +29°C° 0 mm 4 m/S 748 mmHg 87%
    08:00 +29°C° 0 mm 5 m/S 749 mmHg 84%
    09:00 +30°C° 0 mm 5 m/S 749 mmHg 82%
    10:00 +32°C° 0.6 mm 6 m/S 749 mmHg 78%
    11:00 +33°C° 0.6 mm 6 m/S 749 mmHg 74%
    12:00 +34°C° 0.6 mm 6 m/S 748 mmHg 70%
    13:00 +35°C° 1.4 mm 6 m/S 748 mmHg 69%
    14:00 +35°C° 1.4 mm 6 m/S 747 mmHg 68%
    15:00 +35°C° 1.4 mm 6 m/S 746 mmHg 67%
    16:00 +34°C° 1.3 mm 6 m/S 746 mmHg 69%
    17:00 +34°C° 1.3 mm 6 m/S 746 mmHg 72%
    18:00 +33°C° 1.3 mm 6 m/S 746 mmHg 74%
    19:00 +32°C° 0.8 mm 6 m/S 747 mmHg 78%
    20:00 +30°C° 0.8 mm 6 m/S 747 mmHg 82%
    21:00 +30°C° 0.8 mm 6 m/S 748 mmHg 85%
    22:00 +29°C° 0.3 mm 6 m/S 748 mmHg 86%
    23:00 +29°C° 0.3 mm 5 m/S 748 mmHg 87%

    27 Juli, Samstag

    Zeit Temperatur Niederschläge Wind Luftdruck Luftfeuchtigkeit
    00:00 +29°C° 0.3 mm 4 m/S 748 mmHg 88%
    01:00 +29°C° 0.2 mm 5 m/S 748 mmHg 88%
    02:00 +29°C° 0.2 mm 5 m/S 747 mmHg 89%
    03:00 +28°C° 0.2 mm 5 m/S 747 mmHg 89%
    04:00 +28°C° 0.1 mm 5 m/S 747 mmHg 89%
    05:00 +28°C° 0.1 mm 5 m/S 747 mmHg 89%
    06:00 +28°C° 0.1 mm 5 m/S 747 mmHg 90%
    07:00 +29°C° 0.1 mm 5 m/S 748 mmHg 87%
    08:00 +29°C° 0.1 mm 6 m/S 748 mmHg 85%
    09:00 +30°C° 0.1 mm 6 m/S 749 mmHg 83%
    10:00 +32°C° 0.3 mm 6 m/S 748 mmHg 79%
    11:00 +33°C° 0.3 mm 7 m/S 748 mmHg 75%
    12:00 +34°C° 0.3 mm 7 m/S 748 mmHg 71%
    13:00 +34°C° 0.4 mm 7 m/S 747 mmHg 68%
    14:00 +35°C° 0.4 mm 7 m/S 747 mmHg 66%
    15:00 +36°C° 0.4 mm 7 m/S 746 mmHg 63%
    16:00 +35°C° 0.2 mm 6 m/S 746 mmHg 65%
    17:00 +35°C° 0.2 mm 6 m/S 746 mmHg 67%
    18:00 +34°C° 0.2 mm 6 m/S 746 mmHg 68%
    19:00 +33°C° 1 mm 6 m/S 747 mmHg 72%
    20:00 +33°C° 1 mm 6 m/S 748 mmHg 76%
    21:00 +32°C° 1 mm 5 m/S 748 mmHg 80%
    22:00 +30°C° 0.1 mm 5 m/S 748 mmHg 81%
    23:00 +30°C° 0.1 mm 5 m/S 749 mmHg 82%

    28 Juli, Sonntag

    Zeit Temperatur Niederschläge Wind Luftdruck Luftfeuchtigkeit
    00:00 +29°C° 0.1 mm 6 m/S 749 mmHg 84%
    01:00 +29°C° 0 mm 6 m/S 748 mmHg 85%
    02:00 +29°C° 0 mm 5 m/S 748 mmHg 86%
    03:00 +29°C° 0 mm 5 m/S 748 mmHg 87%
    04:00 +28°C° 0 mm 6 m/S 748 mmHg 87%
    05:00 +28°C° 0 mm 6 m/S 748 mmHg 87%
    06:00 +28°C° 0 mm 6 m/S 748 mmHg 87%
    07:00 +29°C° 0.3 mm 6 m/S 749 mmHg 84%
    08:00 +30°C° 0.3 mm 6 m/S 749 mmHg 82%
    09:00 +30°C° 0.3 mm 7 m/S 750 mmHg 80%
    10:00 +32°C° 0.3 mm 7 m/S 750 mmHg 76%
    11:00 +33°C° 0.3 mm 7 m/S 749 mmHg 73%
    12:00 +34°C° 0.3 mm 7 m/S 749 mmHg 69%
    13:00 +34°C° 0.4 mm 7 m/S 749 mmHg 67%
    14:00 +35°C° 0.4 mm 7 m/S 748 mmHg 65%
    15:00 +36°C° 0.4 mm 7 m/S 747 mmHg 62%
    16:00 +35°C° 0.8 mm 6 m/S 748 mmHg 65%
    17:00 +34°C° 0.8 mm 6 m/S 748 mmHg 68%
    18:00 +34°C° 0.8 mm 5 m/S 748 mmHg 70%
    19:00 +33°C° 0.7 mm 5 m/S 748 mmHg 74%
    20:00 +32°C° 0.7 mm 4 m/S 749 mmHg 77%
    21:00 +30°C° 0.7 mm 4 m/S 750 mmHg 81%
    22:00 +30°C° 0.4 mm 4 m/S 750 mmHg 82%
    23:00 +30°C° 0.4 mm 4 m/S 750 mmHg 83%

    29 Juli, Montag

    Zeit Temperatur Niederschläge Wind Luftdruck Luftfeuchtigkeit
    00:00 +29°C° 0.4 mm 4 m/S 750 mmHg 84%
    01:00 +29°C° 0.5 mm 3 m/S 750 mmHg 85%
    02:00 +29°C° 0.5 mm 3 m/S 750 mmHg 86%
    03:00 +29°C° 0.5 mm 3 m/S 749 mmHg 87%
    04:00 +29°C° 0 mm 3 m/S 749 mmHg 87%
    05:00 +29°C° 0 mm 3 m/S 749 mmHg 87%
    06:00 +29°C° 0 mm 2 m/S 749 mmHg 87%
    07:00 +30°C° 0.1 mm 3 m/S 749 mmHg 83%
    08:00 +31°C° 0.1 mm 3 m/S 750 mmHg 78%
    09:00 +33°C° 0.1 mm 4 m/S 750 mmHg 74%
    10:00 +34°C° 0.3 mm 4 m/S 750 mmHg 69%
    11:00 +35°C° 0.3 mm 4 m/S 749 mmHg 64%
    12:00 +36°C° 0.3 mm 4 m/S 749 mmHg 59%
    13:00 +36°C° 0.2 mm 4 m/S 748 mmHg 58%
    14:00 +37°C° 0.2 mm 4 m/S 748 mmHg 57%
    15:00 +37°C° 0.2 mm 4 m/S 747 mmHg 55%
    16:00 +37°C° 0.4 mm 3 m/S 747 mmHg 58%
    17:00 +36°C° 0.4 mm 3 m/S 747 mmHg 60%
    18:00 +36°C° 0.4 mm 2 m/S 747 mmHg 62%
    19:00 +35°C° 1.1 mm 2 m/S 748 mmHg 67%
    20:00 +34°C° 1.1 mm 2 m/S 748 mmHg 72%
    21:00 +32°C° 1.1 mm 2 m/S 749 mmHg 77%
    22:00 +32°C° 0.3 mm 2 m/S 749 mmHg 78%
    23:00 +31°C° 0.3 mm 2 m/S 749 mmHg 79%
    Mehr zeigen